Regional Weather Roundup
Issued by NWS

Home | Current Version | Previous Version | Text Only | Print | Product List | Glossary Off
Versions: 1 2 3 4 5 6 7 8 9 10 11 12 13 14 15 16 17 18 19 20 21 22 23 24 25 26 27 28 29 30 31 32 33 34 35 36 37 38 39 40 41 42 43 44 45 46 47 48 49 50

000
ASUS43 KLOT 282108
RWRIL

ILLINOIS REGIONAL WEATHER ROUNDUP
NATIONAL WEATHER SERVICE CHICAGO/ROMEOVILLE IL
400 PM CDT SAT MAY 28 2016

NOTE: "FAIR" INDICATES FEW OR NO CLOUDS BELOW 12,000 FEET WITH NO
SIGNIFICANT WEATHER AND/OR OBSTRUCTIONS TO VISIBILITY.

* THESE STATIONS ARE NOT UNDER NWS QUALITY CONTROL. THEY ALSO MAY NOT
  REPORT WEATHER SUCH AS PRECIPITATION OR FOG.

ILZ001-002-007-009-015-016-024-282200-
NORTHWEST ILLINOIS

CITY           SKY/WX    TMP DP  RH WIND       PRES   REMARKS
MOLINE         PTSUNNY   84  65  52 S21G30    29.79F HX  86
STERLING*      MOSUNNY   83  65  54 S12G21    29.83F HX  85
SAVANNA*       MOSUNNY   83  63  49 S20G26    29.80F HX  84
$$

ILZ003-004-008-010-011-017-018-282200-
NORTH CENTRAL ILLINOIS

CITY           SKY/WX    TMP DP  RH WIND       PRES   REMARKS
ROCKFORD       PTSUNNY   84  62  47 SW17G25   29.86F HX  85
FREEPORT*      MOSUNNY   82  63  52 S22G29    29.85S HX  83
ROCHELLE*      MOSUNNY   83  62  48 S21G26    29.85F HX  84
DE KALB*       MOSUNNY   80  66  61 S18G24    29.88F HX  82
$$

ILZ005-006-012>014-019>023-282200-
NORTHEAST ILLINOIS

CITY           SKY/WX    TMP DP  RH WIND       PRES   REMARKS
CHICAGO-OHARE  PTSUNNY   79  65  62 S15G26    29.89F HX  81
CHICAGO-MIDWAY PTSUNNY   82  66  58 S13G23    29.90F HX  84
AURORA         MOSUNNY   83  64  52 S16G25    29.88F HX  84
LANSING*       CLOUDY    79  64  58 S18G24    29.92F HX  81
JOLIET*        MOSUNNY   83  68  59 S15G21    29.89F HX  86
WAUKEGAN       PTSUNNY   80  66  62 S13       29.87F HX  82
DUPAGE AIRPORT PTSUNNY   81  65  58 S20       29.88F HX  83
KANKAKEE*      MOSUNNY   81  65  59 S16G25    29.93F HX  83
WHEELING       MOSUNNY   80  64  58 S17G26    29.90F HX  82
MORRIS*        MOSUNNY   85  62  46 S18G26    29.87F HX  85
ROMEOVILLE*    MOSUNNY   83  62  49 S20G26    29.89F HX  84
NORTHERLY ISL    N/A     78  62  57 S18         N/A  HX  80
NORTHERLY ISL    N/A     78  62  57 S18         N/A  HX  80
$$

LMZ740>746-282200-
SOUTHERN LAKE MICHIGAN

STATION/POSITION SKY/WX   TEMP    WIND        PRES    VSBY  WAVE
                          AIR SEA DIR/SP/G                  HT/PER
                          (F)     (DEG/KT/KT) (MB)    (MI)  (FT/S)
SOUTHERN BUOY              56 50  150/ 10/ 14 1012.7F         1/ 4
WILMETTE HARBOR            67 55  200/ 10/ 17   N/A           2/ 3
HARRISON CRIB              74     200/ 21/ 23   N/A
BURNHAM HARBOR             78     160/ 15/ 22   N/A
CALUMET HARBOR             77     180/ 13/ 19 1012.7F
BURNS HARBOR               77     200/ 18/ 27 1013.9F
MICHIGAN CITY              78     180/ 16/ 19   N/A
MICHIGAN CITY 6N           71 58  200/ 12/ 17   N/A           2/ 3
ST. JOSEPH                 70 61  190/ 10/ 14   N/A           2/ 4
$$

ILZ025>027-034>036-040-047-049-050-058-095>099-282200-
WEST-CENTRAL ILLINOIS

CITY           SKY/WX    TMP DP  RH WIND       PRES   REMARKS
QUINCY         PTSUNNY   80  66  62 SW15G21   29.86S THUNDER HX  82
GALESBURG*     PTSUNNY   81  66  60 S18G25    29.83F HX  83
MACOMB*        MOSUNNY   82  66  57 S20G30    29.86F HX  85
JACKSONVILLE*  PTSUNNY   84  64  51 S17G25    29.89S HX  85
PITTSFIELD*    MOSUNNY   82  67  61 S12G24    29.89F HX  84
$$

ILZ028>032-037-038-041>044-048-051>054-059>061-282200-
CENTRAL ILLINOIS

CITY           SKY/WX    TMP DP  RH WIND       PRES   REMARKS
PONTIAC        PTSUNNY   86  66  50 S22       29.90F HX  88
BLOOMINGTON    MOSUNNY   84  66  54 S28G33    29.91F HX  86
DECATUR        MOSUNNY   82  66  58 S18G26    29.93F HX  84
PEORIA         SUNNY     85  61  44 S16G30    29.85F HX  85
LACON*         SUNNY     85  60  43 SW16G24   29.85F HX  84
LINCOLN*       MOSUNNY   85  66  52 S16G28    29.89F HX  87
SPRINGFIELD    SUNNY     85  64  49 S16G28    29.89F HX  86
TAYLORVILLE    MOSUNNY   82  67  60 S18G25    29.92S HX  85
$$

ILZ033-039-045-046-055>057-062-063-282200-
EAST-CENTRAL ILLINOIS

CITY           SKY/WX    TMP DP  RH WIND       PRES   REMARKS
CHAMPAIGN      MOSUNNY   82  66  58 S21G30    29.95F HX  84
RANTOUL*       MOSUNNY   82  69  64 S16G24    29.95F HX  84
MATTOON        MOSUNNY   79  66  64 S12G20    29.97S HX  81
PARIS*         MOSUNNY   81  69  66 S13       29.99S HX  84
$$

ILZ079-100>102-282200-
SOUTHWEST ILLINOIS

CITY           SKY/WX    TMP DP  RH WIND       PRES   REMARKS
ALTON          PTSUNNY   82  68  61 S18       29.92F HX  85
BELLEVILLE     MOSUNNY   84  69  62 VRB7      29.92F HX  87
CAHOKIA*       PTSUNNY   84  66  54 S10       29.92S HX  86
SPARTA*        MOSUNNY   81  68  64 S12G22    29.97S HX  83
$$

ILZ064>066-069>071-074>076-080>082-084>086-088>090-092>094-282200-
SOUTH-CENTRAL ILLINOIS

CITY           SKY/WX    TMP DP  RH WIND       PRES   REMARKS
CARBONDALE     CLOUDY    81  66  60 S15       29.99S HX  83
CAIRO*         PTSUNNY   81  67  62 S10       30.00S HX  83
EFFINGHAM*     MOSUNNY   81  69  67 SE10G17   29.98S HX  84
MT. VERNON     MOSUNNY   82  66  57 S16G22    29.99S HX  85
CENTRALIA*     MOSUNNY   81  70  69 S16G22    29.96S HX  84
SALEM*         MOSUNNY   82  68  62 S12G17    29.96F HX  85
METROPOLIS*    CLOUDY    82  70  65 S5G10     30.02S HX  86
$$

ILZ067-068-072-073-078-083-087-091-282200-
SOUTHEAST ILLINOIS

CITY           SKY/WX    TMP DP  RH WIND       PRES   REMARKS
LAWRENCEVILLE  CLOUDY    84  64  50 S21G28    30.00S HX  85
FLORA*         PTSUNNY   83  70  64 S10G16    29.98S HX  86
FAIRFIELD*     PTSUNNY   81  68  64 S12       29.98R HX  84
HARRISBURG*    CLOUDY    81  71  71 S12G17    30.01R HX  85
ROBINSON*      CLOUDY    81  66  60 S15G22    30.00S HX  83
CARMI*         PTSUNNY   81  69  66 S13       30.00S HX  85
$$

ABBREVIATIONS USED IN REMARKS
   TC - TEMPERATURE IN CELSIUS
  WCI - WIND CHILL INDEX
   HX - HEAT INDEX
  VSB - VISIBILITY
$$




USA.gov is the U.S. government's official web portal to all federal, state and local government web resources and services.